Location: Silverdale
(47.6506°N, 122.6941°W)
Time: 05:32:26
(UTC+00:00)

Tiros 1 despin weight - Pass Details

Date: 11 October 2022
Orbit: 590 x 637 km, 48.2° (Epoch: 09 December)

Event Time Altitude Azimuth Distance (km) Brightness Sun altitude
Rises 02:42:02 0° 285° (WNW) 2,866 ? -12.6°
Reaches altitude 10° 02:44:29 10° 276° (W) 1,968 ? -13.0°
Maximum altitude 02:48:32 33° 212° (SSW) 1,048 ? -13.7°
Drops below altitude 10° 02:52:37 10° 149° (SSE) 1,988 ? -14.4°
Enters shadow 02:52:51 - 148° (SSE) 2,069 ? -14.4°
